Location: Red Deer
(52.2681°N, 113.8112°W)
Time: 20:43:25
(UTC-07:00)

N. Korean satellite - Pass Details

Date: 03 December 2022
Orbit: 407 x 441 km, 97.3° (Epoch: 05 February)

Event Time Altitude Azimuth Distance (km) Brightness Sun altitude
Rises 06:20:38 0° 10° (N) 2,530 10.2 -18.0°
Reaches altitude 10° 06:22:43 10° 7° (N) 1,645 9.2 -17.7°
Maximum altitude 06:26:13 62° 287° (WNW) 535 6.4 -17.2°
Drops below altitude 10° 06:29:38 10° 207° (SSW) 1,612 9.1 -16.7°
Sets 06:31:40 0° 203° (SSW) 2,473 10.1 -16.4°
